Location: Newark
(13.6797°N, 8.5297°E)
Time: 14:53:49
(UTC+00:00)

Courier 1B Rocket - Pass Details

Date: 23 January 2020
Orbit: 920 x 1202 km, 28.2° (Epoch: 22 February)

Event Time Altitude Azimuth Distance (km) Brightness Sun altitude
Rises 07:08:02 0° 212° (SSW) 4,087 8.2 15.8°
Reaches altitude 10° 07:11:39 10° 198° (SSW) 3,109 7.8 16.6°
Maximum altitude 07:17:23 22° 149° (SSE) 2,273 8.1 17.9°
Drops below altitude 10° 07:22:56 10° 101° (E) 3,005 9.4 19.1°
Sets 07:26:20 0° 87° (E) 3,917 9.2 19.8°
